Regional Weather Roundup
Issued by NWS

Home | Current Version | Previous Version | Text Only | Print | Product List | Glossary On
Versions: 1 2 3 4 5 6 7 8 9 10 11 12 13 14 15 16 17 18 19 20 21 22 23 24 25 26 27 28 29 30 31 32 33 34 35 36 37 38 39 40 41 42 43 44 45 46 47 48 49 50
000
ASUS44 KLIX 231813
RWRLA
LOUISIANA WEATHER ROUNDUP
NATIONAL WEATHER SERVICE NEW ORLEANS LA
1200 PM CST MON JAN 23 2017

NOTE: "FAIR" INDICATES FEW OR NO CLOUDS BELOW 12,000 FEET WITH NO
      SIGNIFICANT WEATHER AND/OR OBSTRUCTIONS TO VISIBILITY.
      SKY/WX - SKY CONDITION AND SIGNIFICANT WEATHER.
      TMP - AIR TEMPERATURE.    DP   - DEWPOINT TEMPERATURE.
      RH  - RELATIVE HUMIDITY.  PRES - PRESSURE.
      HX  - HEAT INDEX.         WCI  - WIND CHILL INDEX.

*  THESE STATIONS ARE NOT NWS OR FAA STATIONS AND ARE NOT UNDER
   NWS QUALITY CONTROL.

LAZ040-048-061>063-065-066-069-231900-
SOUTHEAST LOUISIANA

CITY           SKY/WX    TMP DP  RH WIND       PRES   REMARKS
N.O. AUDUBON   NOT AVBL
N.O. INTL ARPT MOSUNNY   61  45  55 W17       29.86S
6HR MIN TEMP:  54; 6HR MAX TEMP:  62;

N.O. LAKEFRONT SUNNY     60  48  64 W25       29.86S
6HR MIN TEMP:  56; 6HR MAX TEMP:  60;

N.O. DOWNTOWN*   N/A     63  45  51 W12       29.86F
6HR MIN TEMP:  55; 6HR MAX TEMP:  63;

RESERVE*       FAIR      64  44  49 NW14      29.87F
6HR MIN TEMP:  55; 6HR MAX TEMP:  64;

SLIDELL        SUNNY     63  47  55 VRB7      29.82F
6HR MIN TEMP:  56; 6HR MAX TEMP:  63;

BATON ROUGE    SUNNY     61  43  51 W10       29.88F
6HR MIN TEMP:  51; 6HR MAX TEMP:  61;

BOOTHVILLE     SUNNY     61  47  59 W16G25    29.84F
6HR MIN TEMP:  55; 6HR MAX TEMP:  61;

BELLE CHASSE   SUNNY     63  46  54 NW12G20   29.84F
6HR MIN TEMP:  56; 6HR MAX TEMP:  63;

BOGALUSA*      FAIR      64  48  57 NW12G18   29.84F
6HR MIN TEMP:  56; 6HR MAX TEMP:  64;

GALLIANO*      CLEAR     64  43  45 W15       29.87S
6HR MIN TEMP:  53; 6HR MAX TEMP:  64;

NEW ROADS*     FAIR      58  42  55 W12       29.90F
6HR MIN TEMP:  49; 6HR MAX TEMP:  58;

GONZALES*      FAIR      62  43  50 NW12      29.87F
6HR MIN TEMP:  52; 6HR MAX TEMP:  62;

HAMMOND*       SUNNY     63  43  48 NW12G21   29.85F
HOUMA*         NOT AVBL
PORT FOURCHON* CLEAR     61  46  59 W18       29.87F

$$

LAZ041-044-053-054-231900-
SOUTHWEST LOUISIANA

CITY           SKY/WX    TMP DP  RH WIND       PRES   REMARKS
LAKE CHARLES   SUNNY     64  38  38 NW8       29.92F
6HR MIN TEMP:  49; 6HR MAX TEMP:  64;

LAFAYETTE      SUNNY     62  42  47 NW9       29.91F
6HR MIN TEMP:  52; 6HR MAX TEMP:  62;

PATTERSON      SUNNY     61  44  53 W12       29.91F
6HR MIN TEMP:  51; 6HR MAX TEMP:  62;

SALT POINT     NOT AVBL
NEW IBERIA     SUNNY     63  41  44 NW12      29.92F
6HR MIN TEMP:  49; 6HR MAX TEMP:  63;

CHENAULT AIRPK SUNNY     61  37  41 NW12      29.94F

$$

LAZ027-028-231900-
CENTRAL LOUISIANA

CITY           SKY/WX    TMP DP  RH WIND       PRES   REMARKS
FORT POLK      SUNNY     59  39  48 NW7       29.91F
6HR MIN TEMP:  45; 6HR MAX TEMP:  59;

ALEXANDRIA INT SUNNY     56  41  57 NW10      29.90F
6HR MIN TEMP:  47; 6HR MAX TEMP:  56;

ALEXANDRIA     SUNNY     60  41  49 W6        29.89F
6HR MIN TEMP:  44; 6HR MAX TEMP:  61;


$$

LAZ001-002-231900-
NORTHWEST LOUISIANA

CITY           SKY/WX    TMP DP  RH WIND       PRES   REMARKS
SHREVEPORT     SUNNY     57  37  47 VRB5      29.92F
6HR MIN TEMP:  44; 6HR MAX TEMP:  57;

BARKSDALE AFB  SUNNY     53  36  51 VRB5      29.92F
6HR MIN TEMP:  43; 6HR MAX TEMP:  53;

DTN SHREVEPORT SUNNY     54  37  52 CALM      29.93F
6HR MIN TEMP:  44; 6HR MAX TEMP:  54;


$$

LAZ014-016-231900-
NORTHEAST LOUISIANA

CITY           SKY/WX    TMP DP  RH WIND       PRES   REMARKS
MONROE         SUNNY     55  40  56 NW7       29.90F
6HR MIN TEMP:  46; 6HR MAX TEMP:  55;

TALLULAH       MOSUNNY   56  42  59 NW7       29.88F
6HR MIN TEMP:  48; 6HR MAX TEMP:  56;


$$




USA.gov is the U.S. government's official web portal to all federal, state and local government web resources and services.